Location: Cheyres
(46.8153°N, 6.7877°E)
Time: 09:56:15
(UTC+00:00)

Gbstr 26 Del rocket - Pass Details

Date: 26 September 2021
Orbit: 492 x 1263 km, 51.8° (Epoch: 18 October)

Event Time Altitude Azimuth Distance (km) Brightness Sun altitude
Exits shadow 04:33:37 12° 262° (W) 2,922 5.8 -9.6°
Maximum altitude 04:35:55 13° 242° (WSW) 2,719 5.7 -9.2°
Drops below altitude 10° 04:38:58 10° 216° (SW) 2,851 6.0 -8.7°
Sets 04:43:02 0° 191° (S) 3,623 6.8 -8.0°
